Time,TemperatureF,DewpointF,PressureIn,WindDirection,WindDirectionDegrees,WindSpeedMPH,WindSpeedGustMPH,Humidity,HourlyPrecipIn,Conditions,Clouds,dailyrainin,SoftwareType,DateUTC
2013-07-06 00:04:00,72.0,71.4,30.04,East,90,0.0,1.6,98,0.00,,,0.13,pywws,2013-07-06 04:04:00,
2013-07-06 00:09:00,72.0,71.4,30.05,SE,135,0.0,0.0,98,0.00,,,0.00,pywws,2013-07-06 04:09:00,
2013-07-06 00:14:00,71.8,71.2,30.05,SE,135,0.0,0.0,98,0.00,,,0.00,pywws,2013-07-06 04:14:00,
2013-07-06 00:19:00,72.1,71.5,30.06,SE,135,0.0,0.7,98,0.00,,,0.00,pywws,2013-07-06 04:19:00,
2013-07-06 00:24:00,71.8,71.2,30.06,SE,135,0.0,0.0,98,0.00,,,0.00,pywws,2013-07-06 04:24:00,
2013-07-06 00:34:00,71.8,71.5,30.06,SE,135,0.0,0.7,99,0.00,,,0.00,pywws,2013-07-06 04:34:00,
2013-07-06 00:39:00,71.8,71.5,30.07,SE,135,0.0,0.7,99,0.00,,,0.00,pywws,2013-07-06 04:39:00,
2013-07-06 00:44:00,71.8,71.5,30.08,SE,135,0.0,0.7,99,0.00,,,0.00,pywws,2013-07-06 04:44:00,
2013-07-06 00:49:00,71.6,71.3,30.08,SE,135,0.0,0.0,99,0.00,,,0.00,pywws,2013-07-06 04:49:00,
2013-07-06 00:54:00,71.6,71.3,30.09,SE,135,0.7,1.6,99,0.00,,,0.00,pywws,2013-07-06 04:54:00,
2013-07-06 01:04:00,71.6,71.3,30.09,SE,135,0.0,0.0,99,0.00,,,0.00,pywws,2013-07-06 05:04:00,
2013-07-06 01:09:00,71.8,71.5,30.10,SE,135,0.0,0.0,99,0.00,,,0.00,pywws,2013-07-06 05:09:00,
2013-07-06 01:14:00,71.8,71.5,30.10,SE,135,0.0,0.0,99,0.00,,,0.00,pywws,2013-07-06 05:14:00,
2013-07-06 01:19:00,71.8,71.5,30.10,SE,135,0.0,0.7,99,0.00,,,0.00,pywws,2013-07-06 05:19:00,
2013-07-06 01:24:00,72.0,71.7,30.09,SE,135,0.0,0.7,99,0.00,,,0.00,pywws,2013-07-06 05:24:00,
2013-07-06 01:34:00,72.1,71.8,30.09,SE,135,0.0,1.6,99,0.00,,,0.00,pywws,2013-07-06 05:34:00,
2013-07-06 01:39:00,72.3,72.0,30.10,SE,135,0.0,2.2,99,0.00,,,0.00,pywws,2013-07-06 05:39:00,
2013-07-06 01:44:00,72.5,72.2,30.10,South,180,0.0,1.6,99,0.00,,,0.00,pywws,2013-07-06 05:44:00,
2013-07-06 01:49:00,72.5,72.2,30.10,South,180,0.7,1.6,99,0.00,,,0.00,pywws,2013-07-06 05:49:00,
2013-07-06 01:54:00,72.7,72.4,30.10,East,90,0.7,3.1,99,0.00,,,0.00,pywws,2013-07-06 05:54:00,
2013-07-06 02:04:00,72.7,72.4,30.10,SE,135,0.0,0.7,99,0.00,,,0.00,pywws,2013-07-06 06:04:00,
2013-07-06 02:09:00,72.9,72.6,30.10,SE,135,0.0,0.7,99,0.00,,,0.00,pywws,2013-07-06 06:09:00,
2013-07-06 02:14:00,72.9,72.6,30.10,SE,135,0.0,1.6,99,0.00,,,0.00,pywws,2013-07-06 06:14:00,
2013-07-06 02:19:00,72.9,72.6,30.10,SE,135,0.7,1.6,99,0.00,,,0.00,pywws,2013-07-06 06:19:00,
2013-07-06 02:24:00,72.9,72.6,30.11,SE,135,0.7,1.6,99,0.00,,,0.00,pywws,2013-07-06 06:24:00,
2013-07-06 02:34:00,73.0,72.7,30.11,South,180,1.6,3.8,99,0.00,,,0.00,pywws,2013-07-06 06:34:00,
2013-07-06 02:39:00,73.0,72.7,30.10,SE,135,1.6,3.1,99,0.00,,,0.00,pywws,2013-07-06 06:39:00,
2013-07-06 02:44:00,73.2,72.9,30.10,South,180,0.0,1.6,99,0.00,,,0.00,pywws,2013-07-06 06:44:00,
2013-07-06 02:49:00,73.2,72.9,30.10,SE,135,0.7,2.2,99,0.00,,,0.00,pywws,2013-07-06 06:49:00,
2013-07-06 02:54:00,73.2,72.9,30.10,SSE,158,0.7,2.2,99,0.00,,,0.00,pywws,2013-07-06 06:54:00,
2013-07-06 03:04:00,73.2,72.9,30.11,SE,135,0.7,2.2,99,0.00,,,0.00,pywws,2013-07-06 07:04:00,
2013-07-06 03:09:00,73.2,72.9,30.11,SE,135,0.7,2.2,99,0.00,,,0.00,pywws,2013-07-06 07:09:00,
2013-07-06 03:14:00,73.2,72.9,30.10,SE,135,0.0,1.6,99,0.00,,,0.00,pywws,2013-07-06 07:14:00,
2013-07-06 03:19:00,73.2,72.9,30.10,SE,135,0.7,1.6,99,0.00,,,0.00,pywws,2013-07-06 07:19:00,
2013-07-06 03:24:00,73.2,72.9,30.10,East,90,0.0,1.6,99,0.00,,,0.00,pywws,2013-07-06 07:24:00,
2013-07-06 03:34:00,73.2,72.9,30.10,SE,135,0.0,0.7,99,0.00,,,0.00,pywws,2013-07-06 07:34:00,
2013-07-06 03:39:00,73.4,73.1,30.11,SE,135,0.7,1.6,99,0.00,,,0.00,pywws,2013-07-06 07:39:00,
2013-07-06 03:44:00,73.4,73.1,30.11,SE,135,0.0,1.6,99,0.00,,,0.00,pywws,2013-07-06 07:44:00,
2013-07-06 03:49:00,73.4,73.1,30.11,SE,135,0.0,1.6,99,0.00,,,0.00,pywws,2013-07-06 07:49:00,
2013-07-06 03:54:00,73.4,73.1,30.11,SE,135,0.7,2.2,99,0.00,,,0.00,pywws,2013-07-06 07:54:00,
2013-07-06 04:04:00,73.4,73.1,30.10,SE,135,0.7,2.2,99,0.00,,,0.00,pywws,2013-07-06 08:04:00,
2013-07-06 04:09:00,73.6,73.3,30.11,South,180,1.6,2.2,99,0.00,,,0.00,pywws,2013-07-06 08:09:00,
2013-07-06 04:14:00,73.6,73.3,30.11,South,180,0.7,1.6,99,0.00,,,0.00,pywws,2013-07-06 08:14:00,
2013-07-06 04:19:00,73.6,73.3,30.11,SE,135,0.7,2.2,99,0.00,,,0.00,pywws,2013-07-06 08:19:00,
2013-07-06 04:24:00,73.8,73.5,30.11,SE,135,0.7,1.6,99,0.00,,,0.00,pywws,2013-07-06 08:24:00,
2013-07-06 04:34:00,73.8,73.5,30.11,East,90,0.0,1.6,99,0.00,,,0.00,pywws,2013-07-06 08:34:00,
2013-07-06 04:39:00,73.8,73.5,30.10,SE,135,0.0,1.6,99,0.00,,,0.00,pywws,2013-07-06 08:39:00,
2013-07-06 04:44:00,73.8,73.5,30.10,SE,135,0.7,1.6,99,0.00,,,0.00,pywws,2013-07-06 08:44:00,
2013-07-06 04:49:00,73.8,73.5,30.11,SW,225,1.6,2.2,99,0.00,,,0.00,pywws,2013-07-06 08:49:00,
2013-07-06 04:54:00,73.8,73.5,30.11,SE,135,0.0,0.7,99,0.00,,,0.00,pywws,2013-07-06 08:54:00,
2013-07-06 05:04:00,73.8,73.5,30.11,SE,135,0.0,0.7,99,0.00,,,0.00,pywws,2013-07-06 09:04:00,
2013-07-06 05:09:00,73.8,73.5,30.11,SE,135,0.0,0.0,99,0.00,,,0.00,pywws,2013-07-06 09:09:00,
2013-07-06 05:14:00,73.8,73.5,30.10,SE,135,0.0,1.6,99,0.00,,,0.00,pywws,2013-07-06 09:14:00,
2013-07-06 05:19:00,73.8,73.5,30.10,South,180,0.0,0.7,99,0.00,,,0.00,pywws,2013-07-06 09:19:00,
2013-07-06 05:24:00,73.8,73.5,30.10,SE,135,0.0,0.0,99,0.00,,,0.00,pywws,2013-07-06 09:24:00,
2013-07-06 05:34:00,73.8,73.5,30.10,East,90,0.0,0.7,99,0.00,,,0.00,pywws,2013-07-06 09:34:00,
2013-07-06 05:39:00,73.8,73.5,30.09,SE,135,0.0,0.0,99,0.00,,,0.00,pywws,2013-07-06 09:39:00,
2013-07-06 05:44:00,73.8,73.5,30.09,SE,135,0.0,0.7,99,0.00,,,0.00,pywws,2013-07-06 09:44:00,
2013-07-06 05:49:00,73.8,73.5,30.09,SE,135,0.0,0.7,99,0.00,,,0.00,pywws,2013-07-06 09:49:00,
2013-07-06 05:54:00,73.8,73.5,30.09,South,180,0.0,1.6,99,0.00,,,0.00,pywws,2013-07-06 09:54:00,
2013-07-06 06:04:00,73.8,73.5,30.08,SE,135,0.0,0.7,99,0.00,,,0.00,pywws,2013-07-06 10:04:00,
2013-07-06 06:09:00,73.8,73.5,30.08,SE,135,0.0,0.7,99,0.00,,,0.00,pywws,2013-07-06 10:09:00,
2013-07-06 06:14:00,73.8,73.5,30.08,SE,135,0.0,1.6,99,0.00,,,0.00,pywws,2013-07-06 10:14:00,
2013-07-06 06:19:00,73.8,73.5,30.08,SE,135,0.0,1.6,99,0.00,,,0.00,pywws,2013-07-06 10:19:00,
2013-07-06 06:24:00,73.8,73.5,30.07,SE,135,0.7,1.6,99,0.00,,,0.00,pywws,2013-07-06 10:24:00,
2013-07-06 06:34:00,73.8,73.5,30.07,SE,135,0.7,2.2,99,0.00,,,0.00,pywws,2013-07-06 10:34:00,
2013-07-06 06:39:00,73.8,73.5,30.06,SE,135,0.0,1.6,99,0.00,,,0.00,pywws,2013-07-06 10:39:00,
2013-07-06 06:44:00,73.8,73.5,30.06,SE,135,0.0,0.0,99,0.00,,,0.00,pywws,2013-07-06 10:44:00,
2013-07-06 06:49:00,73.8,73.5,30.05,SE,135,0.0,0.7,99,0.00,,,0.00,pywws,2013-07-06 10:49:00,
2013-07-06 06:54:00,73.8,73.5,30.05,SE,135,0.0,0.7,99,0.00,,,0.00,pywws,2013-07-06 10:54:00,
2013-07-06 07:04:00,73.8,73.5,30.04,East,90,0.0,0.7,99,0.00,,,0.00,pywws,2013-07-06 11:04:00,
2013-07-06 07:09:00,73.8,73.5,30.03,NE,45,0.0,0.7,99,0.00,,,0.00,pywws,2013-07-06 11:09:00,
2013-07-06 07:14:00,73.9,73.6,30.03,SE,135,0.0,0.7,99,0.00,,,0.00,pywws,2013-07-06 11:14:00,
2013-07-06 07:19:00,73.9,73.6,30.03,South,180,0.0,2.2,99,0.00,,,0.00,pywws,2013-07-06 11:19:00,
2013-07-06 07:24:00,73.9,73.6,30.02,SSW,202,0.0,0.0,99,0.00,,,0.00,pywws,2013-07-06 11:24:00,
2013-07-06 07:34:00,74.1,73.8,30.02,SE,135,0.0,1.6,99,0.00,,,0.00,pywws,2013-07-06 11:34:00,
2013-07-06 07:38:00,74.3,74.0,30.01,East,90,0.0,0.0,99,0.00,,,0.00,pywws,2013-07-06 11:38:00,
2013-07-06 07:43:00,74.3,74.0,30.01,SE,135,0.7,2.2,99,0.00,,,0.00,pywws,2013-07-06 11:43:00,
2013-07-06 07:48:00,74.3,74.0,30.00,SE,135,0.0,1.6,99,0.00,,,0.00,pywws,2013-07-06 11:48:00,
2013-07-06 07:53:00,74.5,74.2,30.00,SSE,158,0.7,2.2,99,0.00,,,0.00,pywws,2013-07-06 11:53:00,
2013-07-06 08:04:00,74.5,74.2,30.00,SE,135,0.7,1.6,99,0.00,,,0.00,pywws,2013-07-06 12:04:00,
2013-07-06 08:09:00,74.7,74.4,29.99,East,90,0.0,1.6,99,0.00,,,0.00,pywws,2013-07-06 12:09:00,
2013-07-06 08:14:00,74.8,74.5,29.98,South,180,0.0,0.7,99,0.00,,,0.00,pywws,2013-07-06 12:14:00,
2013-07-06 08:19:00,75.0,74.7,29.98,South,180,1.6,2.2,99,0.00,,,0.00,pywws,2013-07-06 12:19:00,
2013-07-06 08:24:00,75.2,74.9,29.98,East,90,0.0,0.7,99,0.00,,,0.00,pywws,2013-07-06 12:24:00,
2013-07-06 08:34:00,75.4,75.1,29.98,SE,135,0.0,0.7,99,0.00,,,0.00,pywws,2013-07-06 12:34:00,
2013-07-06 08:39:00,75.7,75.4,29.97,SE,135,0.0,2.2,99,0.00,,,0.00,pywws,2013-07-06 12:39:00,
2013-07-06 08:44:00,75.9,75.6,29.97,South,180,0.7,1.6,99,0.00,,,0.00,pywws,2013-07-06 12:44:00,
2013-07-06 08:49:00,76.3,76.0,29.97,SSW,202,0.7,2.2,99,0.00,,,0.00,pywws,2013-07-06 12:49:00,
2013-07-06 08:54:00,76.5,76.2,29.96,South,180,0.7,1.6,99,0.00,,,0.00,pywws,2013-07-06 12:54:00,
2013-07-06 09:04:00,76.6,75.7,29.96,SE,135,0.0,1.6,97,0.00,,,0.00,pywws,2013-07-06 13:04:00,
2013-07-06 09:09:00,77.4,76.1,29.96,North,0,0.7,1.6,96,0.00,,,0.00,pywws,2013-07-06 13:09:00,
2013-07-06 09:14:00,77.5,76.3,29.96,South,180,0.0,0.0,96,0.00,,,0.00,pywws,2013-07-06 13:14:00,
2013-07-06 09:19:00,77.7,76.5,29.95,East,90,0.0,0.7,96,0.00,,,0.00,pywws,2013-07-06 13:19:00,
2013-07-06 09:24:00,78.1,76.5,29.95,East,90,0.0,1.6,95,0.00,,,0.00,pywws,2013-07-06 13:24:00,
2013-07-06 09:34:00,78.1,76.2,29.95,SE,135,0.0,0.7,94,0.00,,,0.00,pywws,2013-07-06 13:34:00,
2013-07-06 09:39:00,78.3,75.7,29.95,SE,135,1.6,3.1,92,0.00,,,0.00,pywws,2013-07-06 13:39:00,
2013-07-06 09:44:00,78.6,75.8,29.95,SE,135,0.0,1.6,91,0.00,,,0.00,pywws,2013-07-06 13:44:00,
2013-07-06 09:49:00,78.4,75.3,29.94,SE,135,1.6,3.1,90,0.01,,,0.01,pywws,2013-07-06 13:49:00,
2013-07-06 09:54:00,78.3,75.1,29.94,SE,135,0.0,0.0,90,0.01,,,0.01,pywws,2013-07-06 13:54:00,
2013-07-06 10:04:00,78.4,75.3,29.94,South,180,0.7,3.1,90,0.01,,,0.01,pywws,2013-07-06 14:04:00,
2013-07-06 10:08:00,78.6,75.4,29.93,SE,135,0.0,0.0,90,0.01,,,0.01,pywws,2013-07-06 14:08:00,
2013-07-06 10:13:00,79.0,75.8,29.93,SE,135,0.0,1.6,90,0.01,,,0.01,pywws,2013-07-06 14:13:00,
2013-07-06 10:18:00,79.3,75.8,29.93,South,180,0.7,2.2,89,0.01,,,0.01,pywws,2013-07-06 14:18:00,
2013-07-06 10:23:00,79.2,75.3,29.92,SE,135,0.0,0.7,88,0.01,,,0.01,pywws,2013-07-06 14:23:00,
2013-07-06 10:34:00,79.2,74.9,29.92,South,180,0.7,1.6,87,0.01,,,0.01,pywws,2013-07-06 14:34:00,
2013-07-06 10:39:00,80.2,74.2,29.91,SE,135,1.6,3.1,82,0.01,,,0.01,pywws,2013-07-06 14:39:00,
2013-07-06 10:44:00,80.6,74.6,29.91,SE,135,0.7,3.1,82,0.01,,,0.01,pywws,2013-07-06 14:44:00,
2013-07-06 10:49:00,81.0,74.6,29.91,SE,135,0.7,2.2,81,0.00,,,0.01,pywws,2013-07-06 14:49:00,
2013-07-06 10:54:00,81.9,75.4,29.91,SE,135,1.6,4.5,81,0.00,,,0.01,pywws,2013-07-06 14:54:00,
2013-07-06 11:04:00,82.4,74.4,29.90,SE,135,0.7,2.2,77,0.00,,,0.01,pywws,2013-07-06 15:04:00,
2013-07-06 11:08:00,82.8,74.0,29.89,SE,135,2.2,3.8,75,0.00,,,0.01,pywws,2013-07-06 15:08:00,
2013-07-06 11:13:00,83.3,74.9,29.89,South,180,0.7,1.6,76,0.00,,,0.01,pywws,2013-07-06 15:13:00,
2013-07-06 11:18:00,84.2,75.0,29.88,West,270,1.6,3.1,74,0.00,,,0.01,pywws,2013-07-06 15:18:00,
2013-07-06 11:23:00,84.9,74.4,29.88,SE,135,0.0,1.6,71,0.00,,,0.01,pywws,2013-07-06 15:23:00,
2013-07-06 11:34:00,86.2,73.9,29.88,South,180,1.6,3.1,67,0.00,,,0.01,pywws,2013-07-06 15:34:00,
2013-07-06 11:38:00,85.6,73.4,29.88,ENE,68,1.6,4.5,67,0.00,,,0.01,pywws,2013-07-06 15:38:00,
2013-07-06 11:43:00,86.0,74.6,29.87,NE,45,0.7,3.8,69,0.00,,,0.01,pywws,2013-07-06 15:43:00,
2013-07-06 11:48:00,87.3,73.6,29.87,SSE,158,1.6,4.5,64,0.00,,,0.01,pywws,2013-07-06 15:48:00,
2013-07-06 11:53:00,87.3,73.6,29.86,East,90,0.0,1.6,64,0.00,,,0.01,pywws,2013-07-06 15:53:00,
2013-07-06 12:04:00,87.8,73.6,29.86,SE,135,2.2,3.8,63,0.00,,,0.01,pywws,2013-07-06 16:04:00,
2013-07-06 12:09:00,87.3,73.1,29.86,NE,45,1.6,3.8,63,0.00,,,0.01,pywws,2013-07-06 16:09:00,
2013-07-06 12:14:00,87.4,73.3,29.85,SE,135,2.2,4.5,63,0.00,,,0.01,pywws,2013-07-06 16:14:00,
2013-07-06 12:19:00,86.9,73.7,29.85,South,180,2.2,4.5,65,0.00,,,0.01,pywws,2013-07-06 16:19:00,
2013-07-06 12:24:00,86.5,74.2,29.85,SE,135,1.6,3.1,67,0.00,,,0.01,pywws,2013-07-06 16:24:00,
2013-07-06 12:34:00,86.2,73.5,29.85,SE,135,2.2,3.8,66,0.00,,,0.01,pywws,2013-07-06 16:34:00,
2013-07-06 12:39:00,86.9,74.1,29.84,South,180,0.7,2.2,66,0.00,,,0.01,pywws,2013-07-06 16:39:00,
2013-07-06 12:44:00,87.8,73.6,29.84,South,180,0.7,2.2,63,0.00,,,0.01,pywws,2013-07-06 16:44:00,
2013-07-06 12:49:00,88.5,72.8,29.83,SE,135,0.7,1.6,60,0.00,,,0.01,pywws,2013-07-06 16:49:00,
2013-07-06 12:54:00,88.9,73.2,29.84,SE,135,0.7,3.1,60,0.00,,,0.01,pywws,2013-07-06 16:54:00,
2013-07-06 13:04:00,88.0,72.8,29.84,SE,135,0.7,2.2,61,0.00,,,0.01,pywws,2013-07-06 17:04:00,
2013-07-06 13:08:00,87.3,73.1,29.85,SE,135,1.6,3.1,63,0.00,,,0.01,pywws,2013-07-06 17:08:00,
2013-07-06 13:13:00,86.5,73.8,29.85,SE,135,0.0,0.7,66,0.00,,,0.01,pywws,2013-07-06 17:13:00,
2013-07-06 13:18:00,86.2,73.0,29.85,SE,135,2.2,4.5,65,0.00,,,0.01,pywws,2013-07-06 17:18:00,
2013-07-06 13:23:00,85.6,73.4,29.84,South,180,0.7,2.2,67,0.00,,,0.01,pywws,2013-07-06 17:23:00,
2013-07-06 13:28:00,85.8,74.0,29.84,West,270,0.7,3.1,68,0.00,,,0.01,pywws,2013-07-06 17:28:00,
2013-07-06 13:33:00,86.0,74.6,29.84,East,90,0.7,2.2,69,0.00,,,0.01,pywws,2013-07-06 17:33:00,
2013-07-06 13:39:00,86.7,74.0,29.85,East,90,1.6,3.1,66,0.00,,,0.01,pywws,2013-07-06 17:39:00,
2013-07-06 13:44:00,86.5,73.3,29.85,SW,225,5.4,10.7,65,0.00,,,0.01,pywws,2013-07-06 17:44:00,
2013-07-06 13:49:00,84.2,73.8,29.85,South,180,1.6,3.1,71,0.00,,,0.01,pywws,2013-07-06 17:49:00,
2013-07-06 13:54:00,82.6,73.8,29.85,SE,135,0.7,3.1,75,0.00,,,0.01,pywws,2013-07-06 17:54:00,
2013-07-06 13:59:00,82.6,74.2,29.85,East,90,1.6,3.1,76,0.00,,,0.01,pywws,2013-07-06 17:59:00,
2013-07-06 14:04:00,82.9,73.8,29.84,SSW,202,2.2,3.8,74,0.00,,,0.01,pywws,2013-07-06 18:04:00,
2013-07-06 14:09:00,84.4,73.5,29.84,South,180,2.2,5.4,70,0.00,,,0.01,pywws,2013-07-06 18:09:00,
2013-07-06 14:14:00,85.8,74.4,29.84,South,180,0.7,2.2,69,0.00,,,0.01,pywws,2013-07-06 18:14:00,
2013-07-06 14:19:00,86.9,74.6,29.85,East,90,1.6,3.8,67,0.00,,,0.01,pywws,2013-07-06 18:19:00,
2013-07-06 14:24:00,87.6,74.8,29.85,South,180,1.6,3.8,66,0.00,,,0.01,pywws,2013-07-06 18:24:00,
2013-07-06 14:29:00,88.0,72.8,29.85,SE,135,3.1,4.5,61,0.00,,,0.01,pywws,2013-07-06 18:29:00,
2013-07-06 14:34:00,88.2,73.9,29.85,South,180,1.6,3.1,63,0.00,,,0.01,pywws,2013-07-06 18:34:00,
2013-07-06 14:39:00,87.6,73.4,29.85,SE,135,4.5,6.9,63,0.00,,,0.01,pywws,2013-07-06 18:39:00,
2013-07-06 14:44:00,86.5,74.2,29.84,SE,135,1.6,3.1,67,0.00,,,0.01,pywws,2013-07-06 18:44:00,
2013-07-06 14:49:00,86.9,73.2,29.84,South,180,3.1,4.5,64,0.00,,,0.01,pywws,2013-07-06 18:49:00,
2013-07-06 14:54:00,86.4,73.2,29.84,SE,135,2.2,3.8,65,0.00,,,0.01,pywws,2013-07-06 18:54:00,
2013-07-06 14:59:00,85.6,73.8,29.85,SE,135,0.7,3.1,68,0.00,,,0.01,pywws,2013-07-06 18:59:00,
2013-07-06 15:04:00,84.7,73.4,29.85,SSW,202,1.6,3.1,69,0.00,,,0.01,pywws,2013-07-06 19:04:00,
2013-07-06 15:08:00,83.8,73.4,29.85,South,180,1.6,3.8,71,0.00,,,0.01,pywws,2013-07-06 19:08:00,
2013-07-06 15:13:00,83.7,73.7,29.85,South,180,1.6,3.1,72,0.00,,,0.01,pywws,2013-07-06 19:13:00,
2013-07-06 15:18:00,83.5,73.9,29.85,South,180,0.0,1.6,73,0.00,,,0.01,pywws,2013-07-06 19:18:00,
2013-07-06 15:23:00,83.3,73.7,29.85,SE,135,1.6,3.1,73,0.00,,,0.01,pywws,2013-07-06 19:23:00,
2013-07-06 15:35:00,82.6,73.4,29.85,South,180,0.7,2.2,74,0.00,,,0.01,pywws,2013-07-06 19:35:00,
2013-07-06 15:39:00,82.8,74.4,29.85,SSE,158,2.2,6.0,76,0.00,,,0.01,pywws,2013-07-06 19:39:00,
2013-07-06 15:44:00,82.8,74.8,29.85,West,270,0.7,1.6,77,0.00,,,0.01,pywws,2013-07-06 19:44:00,
2013-07-06 15:49:00,82.9,75.4,29.85,SW,225,0.7,1.6,78,0.00,,,0.01,pywws,2013-07-06 19:49:00,
2013-07-06 15:54:00,83.1,75.1,29.85,South,180,0.7,2.2,77,0.00,,,0.01,pywws,2013-07-06 19:54:00,
2013-07-06 16:04:00,83.3,74.9,29.84,SE,135,1.6,2.2,76,0.00,,,0.01,pywws,2013-07-06 20:04:00,
2013-07-06 16:08:00,83.5,74.3,29.85,West,270,3.1,6.0,74,0.00,,,0.01,pywws,2013-07-06 20:08:00,
2013-07-06 16:13:00,82.9,73.4,29.85,NW,315,0.7,2.2,73,0.00,,,0.01,pywws,2013-07-06 20:13:00,
2013-07-06 16:18:00,82.0,73.3,29.85,East,90,0.7,3.1,75,0.00,,,0.01,pywws,2013-07-06 20:18:00,
2013-07-06 16:23:00,81.5,73.2,29.85,South,180,1.6,2.2,76,0.00,,,0.01,pywws,2013-07-06 20:23:00,
2013-07-06 16:34:00,81.7,73.7,29.84,SE,135,0.0,1.6,77,0.00,,,0.01,pywws,2013-07-06 20:34:00,
2013-07-06 16:39:00,82.2,73.9,29.84,SE,135,1.6,3.8,76,0.00,,,0.01,pywws,2013-07-06 20:39:00,
2013-07-06 16:44:00,82.4,74.1,29.84,East,90,0.7,2.2,76,0.00,,,0.01,pywws,2013-07-06 20:44:00,
2013-07-06 16:49:00,82.9,74.6,29.84,SE,135,1.6,2.2,76,0.00,,,0.01,pywws,2013-07-06 20:49:00,
2013-07-06 16:54:00,83.5,74.7,29.85,South,180,1.6,3.1,75,0.00,,,0.01,pywws,2013-07-06 20:54:00,
2013-07-06 17:04:00,84.2,75.4,29.85,SE,135,1.6,3.1,75,0.00,,,0.01,pywws,2013-07-06 21:04:00,
2013-07-06 17:08:00,84.6,74.1,29.84,NW,315,2.2,4.5,71,0.00,,,0.01,pywws,2013-07-06 21:08:00,
2013-07-06 17:13:00,84.0,74.4,29.84,SE,135,4.5,9.8,73,0.00,,,0.01,pywws,2013-07-06 21:13:00,
2013-07-06 17:18:00,83.8,74.6,29.85,South,180,1.6,4.5,74,0.00,,,0.01,pywws,2013-07-06 21:18:00,
2013-07-06 17:23:00,83.3,74.5,29.85,SE,135,0.7,2.2,75,0.00,,,0.01,pywws,2013-07-06 21:23:00,
2013-07-06 17:34:00,82.8,74.8,29.85,SE,135,1.6,3.8,77,0.00,,,0.01,pywws,2013-07-06 21:34:00,
2013-07-06 17:39:00,79.2,72.1,29.86,South,180,3.8,8.3,79,0.00,,,0.01,pywws,2013-07-06 21:39:00,
2013-07-06 17:44:00,81.5,74.7,29.85,SE,135,0.7,1.6,80,0.00,,,0.01,pywws,2013-07-06 21:44:00,
2013-07-06 17:49:00,81.3,74.9,29.85,SE,135,0.0,1.6,81,0.00,,,0.01,pywws,2013-07-06 21:49:00,
2013-07-06 17:54:00,81.1,75.1,29.85,South,180,1.6,3.1,82,0.00,,,0.01,pywws,2013-07-06 21:54:00,
2013-07-06 17:59:00,81.0,74.9,29.85,SW,225,0.7,1.6,82,0.00,,,0.01,pywws,2013-07-06 21:59:00,
2013-07-06 18:04:00,80.4,75.1,29.85,SE,135,0.7,2.2,84,0.00,,,0.01,pywws,2013-07-06 22:04:00,
2013-07-06 18:08:00,80.2,75.3,29.86,South,180,1.6,2.2,85,0.00,,,0.01,pywws,2013-07-06 22:08:00,
2013-07-06 18:13:00,80.1,75.1,29.86,South,180,0.0,0.7,85,0.00,,,0.01,pywws,2013-07-06 22:13:00,
2013-07-06 18:18:00,80.1,74.4,29.86,SE,135,3.1,5.4,83,0.00,,,0.01,pywws,2013-07-06 22:18:00,
2013-07-06 18:23:00,80.1,74.4,29.85,SE,135,1.6,3.1,83,0.00,,,0.01,pywws,2013-07-06 22:23:00,
2013-07-06 18:28:00,80.4,74.8,29.85,SE,135,0.7,2.2,83,0.00,,,0.01,pywws,2013-07-06 22:28:00,
2013-07-06 18:33:00,80.6,74.6,29.86,South,180,2.2,3.8,82,0.00,,,0.01,pywws,2013-07-06 22:33:00,
2013-07-06 18:38:00,80.6,74.6,29.86,SE,135,0.7,2.2,82,0.00,,,0.01,pywws,2013-07-06 22:38:00,
2013-07-06 18:43:00,80.6,74.2,29.86,South,180,3.8,5.4,81,0.00,,,0.01,pywws,2013-07-06 22:43:00,
2013-07-06 18:48:00,79.7,74.4,29.86,SE,135,1.6,3.8,84,0.00,,,0.01,pywws,2013-07-06 22:48:00,
2013-07-06 18:53:00,79.0,74.4,29.85,South,180,1.6,3.1,86,0.00,,,0.01,pywws,2013-07-06 22:53:00,
2013-07-06 19:03:00,77.9,74.0,29.86,SE,135,2.2,4.5,88,0.02,,,0.04,pywws,2013-07-06 23:03:00,
2013-07-06 19:04:00,78.1,74.2,29.85,East,90,3.1,6.0,88,0.02,,,0.04,pywws,2013-07-06 23:04:00,
2013-07-06 19:08:00,76.8,74.0,29.86,SE,135,0.7,1.6,91,0.04,,,0.05,pywws,2013-07-06 23:08:00,
2013-07-06 19:13:00,76.6,74.1,29.86,South,180,0.7,2.2,92,0.04,,,0.05,pywws,2013-07-06 23:13:00,
2013-07-06 19:18:00,76.5,74.0,29.86,SE,135,0.0,1.6,92,0.04,,,0.05,pywws,2013-07-06 23:18:00,
2013-07-06 19:23:00,76.5,74.3,29.86,SE,135,0.7,2.2,93,0.04,,,0.05,pywws,2013-07-06 23:23:00,
2013-07-06 19:34:00,76.3,74.1,29.86,South,180,0.7,2.2,93,0.04,,,0.05,pywws,2013-07-06 23:34:00,
2013-07-06 19:39:00,76.3,74.4,29.86,South,180,0.7,1.6,94,0.04,,,0.05,pywws,2013-07-06 23:39:00,
2013-07-06 19:44:00,76.3,74.4,29.86,SE,135,2.2,4.5,94,0.04,,,0.05,pywws,2013-07-06 23:44:00,
2013-07-06 19:49:00,76.5,74.9,29.86,SE,135,0.7,2.2,95,0.04,,,0.05,pywws,2013-07-06 23:49:00,
2013-07-06 19:54:00,76.5,74.9,29.86,SE,135,3.8,9.2,95,0.04,,,0.05,pywws,2013-07-06 23:54:00,
2013-07-06 19:59:00,76.5,74.9,29.85,SE,135,2.2,4.5,95,0.01,,,0.05,pywws,2013-07-06 23:59:00,
2013-07-06 20:04:00,76.3,74.4,29.85,South,180,1.6,3.1,94,0.02,,,0.06,pywws,2013-07-07 00:04:00,
2013-07-06 20:09:00,76.1,74.6,29.86,SE,135,0.0,1.6,95,0.01,,,0.06,pywws,2013-07-07 00:09:00,
2013-07-06 20:14:00,75.7,73.9,29.86,SE,135,0.7,1.6,94,0.01,,,0.06,pywws,2013-07-07 00:14:00,
2013-07-06 20:19:00,75.4,73.5,29.86,SE,135,0.7,2.2,94,0.01,,,0.06,pywws,2013-07-07 00:19:00,
2013-07-06 20:24:00,75.2,73.3,29.86,SE,135,0.7,1.6,94,0.01,,,0.06,pywws,2013-07-07 00:24:00,
2013-07-06 20:34:00,75.2,73.3,29.86,South,180,0.7,2.2,94,0.01,,,0.06,pywws,2013-07-07 00:34:00,
2013-07-06 20:38:00,75.0,73.5,29.86,SE,135,0.7,1.6,95,0.01,,,0.06,pywws,2013-07-07 00:38:00,
2013-07-06 20:43:00,75.0,73.5,29.86,South,180,0.7,2.2,95,0.01,,,0.06,pywws,2013-07-07 00:43:00,
2013-07-06 20:48:00,75.0,73.8,29.86,SE,135,0.7,2.2,96,0.01,,,0.06,pywws,2013-07-07 00:48:00,
2013-07-06 20:53:00,75.0,73.8,29.87,SE,135,0.0,1.6,96,0.01,,,0.06,pywws,2013-07-07 00:53:00,
2013-07-06 21:03:00,75.0,73.8,29.88,SE,135,0.7,2.2,96,0.00,,,0.06,pywws,2013-07-07 01:03:00,
2013-07-06 21:04:00,75.0,73.8,29.87,South,180,0.7,3.1,96,0.01,,,0.06,pywws,2013-07-07 01:04:00,
2013-07-06 21:08:00,75.0,73.8,29.88,East,90,0.0,0.7,96,0.00,,,0.06,pywws,2013-07-07 01:08:00,
2013-07-06 21:13:00,75.0,73.8,29.89,North,0,0.0,0.7,96,0.00,,,0.06,pywws,2013-07-07 01:13:00,
2013-07-06 21:18:00,74.8,73.6,29.90,SE,135,0.0,0.7,96,0.00,,,0.06,pywws,2013-07-07 01:18:00,
2013-07-06 21:23:00,74.8,73.6,29.90,South,180,0.0,0.0,96,0.00,,,0.06,pywws,2013-07-07 01:23:00,
2013-07-06 21:28:00,74.7,73.4,29.91,SE,135,0.0,0.0,96,0.00,,,0.06,pywws,2013-07-07 01:28:00,
2013-07-06 21:33:00,74.5,73.3,29.91,SE,135,0.0,0.0,96,0.00,,,0.06,pywws,2013-07-07 01:33:00,
2013-07-06 21:39:00,74.7,73.7,29.92,SSE,158,0.7,1.6,97,0.00,,,0.06,pywws,2013-07-07 01:39:00,
2013-07-06 21:44:00,74.7,73.7,29.92,SE,135,0.0,0.7,97,0.00,,,0.06,pywws,2013-07-07 01:44:00,
2013-07-06 21:49:00,74.7,73.7,29.92,SE,135,0.7,1.6,97,0.00,,,0.06,pywws,2013-07-07 01:49:00,
2013-07-06 21:54:00,74.7,73.7,29.93,SE,135,0.0,0.7,97,0.00,,,0.06,pywws,2013-07-07 01:54:00,
2013-07-06 22:04:00,74.7,73.7,29.93,SE,135,0.0,0.0,97,0.00,,,0.06,pywws,2013-07-07 02:04:00,
2013-07-06 22:08:00,74.5,73.6,29.94,SE,135,0.0,0.0,97,0.00,,,0.06,pywws,2013-07-07 02:08:00,
2013-07-06 22:13:00,74.5,73.6,29.95,North,0,0.0,0.0,97,0.00,,,0.06,pywws,2013-07-07 02:13:00,
2013-07-06 22:18:00,74.5,73.6,29.95,SE,135,0.0,0.0,97,0.00,,,0.06,pywws,2013-07-07 02:18:00,
2013-07-06 22:23:00,74.3,73.4,29.96,SE,135,0.0,0.0,97,0.00,,,0.06,pywws,2013-07-07 02:23:00,
2013-07-06 22:28:00,74.3,73.7,29.96,South,180,0.0,0.0,98,0.00,,,0.06,pywws,2013-07-07 02:28:00,
2013-07-06 22:33:00,74.3,73.4,29.97,South,180,0.0,0.0,97,0.00,,,0.06,pywws,2013-07-07 02:33:00,
2013-07-06 22:39:00,74.3,73.7,29.97,SE,135,0.0,0.7,98,0.00,,,0.06,pywws,2013-07-07 02:39:00,
2013-07-06 22:44:00,74.5,73.9,29.98,SE,135,0.0,0.0,98,0.00,,,0.06,pywws,2013-07-07 02:44:00,
2013-07-06 22:49:00,74.7,74.1,29.98,SE,135,0.0,0.0,98,0.00,,,0.06,pywws,2013-07-07 02:49:00,
2013-07-06 22:54:00,74.7,74.1,29.99,SE,135,0.0,0.0,98,0.00,,,0.06,pywws,2013-07-07 02:54:00,
2013-07-06 22:59:00,74.7,74.1,29.99,SE,135,0.0,0.0,98,0.00,,,0.06,pywws,2013-07-07 02:59:00,
2013-07-06 23:04:00,74.7,74.1,30.00,SE,135,0.0,0.0,98,0.00,,,0.06,pywws,2013-07-07 03:04:00,
2013-07-06 23:08:00,74.7,74.1,30.00,SE,135,0.0,0.0,98,0.00,,,0.06,pywws,2013-07-07 03:08:00,
2013-07-06 23:13:00,74.7,74.1,30.01,SE,135,0.0,1.6,98,0.01,,,0.07,pywws,2013-07-07 03:13:00,
2013-07-06 23:18:00,74.7,74.1,30.01,SE,135,0.0,1.6,98,0.01,,,0.07,pywws,2013-07-07 03:18:00,
2013-07-06 23:23:00,74.7,74.4,30.01,SE,135,0.0,1.6,99,0.01,,,0.07,pywws,2013-07-07 03:23:00,
2013-07-06 23:34:00,74.7,74.4,30.02,SE,135,0.7,2.2,99,0.01,,,0.07,pywws,2013-07-07 03:34:00,
2013-07-06 23:39:00,74.7,74.4,30.03,SE,135,1.6,2.2,99,0.01,,,0.07,pywws,2013-07-07 03:39:00,
2013-07-06 23:44:00,74.7,74.4,30.03,SE,135,0.0,0.0,99,0.01,,,0.07,pywws,2013-07-07 03:44:00,
2013-07-06 23:49:00,74.7,74.4,30.04,South,180,0.7,2.2,99,0.01,,,0.07,pywws,2013-07-07 03:49:00,
2013-07-06 23:54:00,74.5,74.2,30.04,South,180,0.7,1.6,99,0.01,,,0.07,pywws,2013-07-07 03:54:00,